Content
SEND FEEDBACK

Daily
Averages
Monthly
Summary
United States of America

FARGO, NORTH DAKOTA


Home > North America > United States > North Dakota
Elevation: 900 feet     Latitude: 46 54N     Longitude: 096 48W

WEATHER
 
SELECT A DAY
Number of Records: 206,484;   Date Range: 1/1/95 - 7/29/14
 
SHARE

PRINT THIS DATA

[ ← Previous Day ]
WEATHER ALMANAC - JANUARY 23, 2013
[ Next Day → ]
[ °C ]   °F
Weather ElementAverageHighLow
Temperature-3.4 °F6.8 °F (2:00 am)-13 °F (8:53 pm)
Dewpoint-12.2 °F (1:53 am)-23.1 °F (9:53 pm)
Humidity66.4 %84 % (2:53 am)56 % (1:53 pm)
Barometer30.48 in30.77 in (10:53 pm)30.13 in (2:00 am)
Wind Speed16.8 mph26.5 mph (11:53 am)
Wind Gust32.2 mph (10:53 am)
Weather ElementAverage
Visibility8.4 mi
Wind DirectionWNW (284.7 °)

Weather ElementTotal
Precipitation---
Heating Degree Days68.1 (Base 65)
Averaged from 34 records on January 23, 2013
WEATHER CONDITIONS BREAKOUT
WIND DIRECTION BREAKOUT
WEATHER BY HOUR - JANUARY 23, 2013
[ °C ]   °F
Local TimeTemperatureDewpointHumidityBarometerVisibilityWind DirectionWind SpeedGust SpeedPrecipitationEventsConditions
1:53 AM6.1 °F0.0 °F76 %30.21 in10.0 miSouth (190°)8.1 mphMostly Cloudy
2:00 AM6.8 °F-0.4 °F72 %30.13 in9.0 miSouth (190°)9.2 mphMostly Cloudy
2:17 AM6.8 °F-0.4 °F72 %30.13 in8.0 miSouth (190°)8.1 mphOvercast
2:53 AM3.0 °F-0.9 °F84 %30.22 in10.0 miSSW (210°)5.8 mphMostly Cloudy
3:53 AM3.0 °F-0.9 °F84 %30.22 in10.0 miWest (270°)6.9 mphClear
4:53 AM5.0 °F-0.9 °F76 %30.23 in10.0 miNW (320°)16.1 mphClear
5:53 AM3.0 °F-4.0 °F73 %30.27 in10.0 miNW (320°)15.0 mphClear
6:53 AM1.0 °F-6.0 °F72 %30.30 in10.0 miNW (320°)12.7 mphClear
7:53 AM-0.9 °F-9.0 °F69 %30.34 in10.0 miNNW (330°)15.0 mphClear
8:53 AM-2.0 °F-9.9 °F69 %30.38 in10.0 miNNW (340°)17.3 mphClear
9:53 AM-2.0 °F-9.9 °F69 %30.44 in10.0 miNorth (350°)23.0 mph27.6 mphScattered Clouds
10:27 AM-0.4 °F-9.4 °F66 %30.39 in5.0 miNNW (340°)23.0 mph31.1 mphHaze
10:53 AM-0.9 °F-11.0 °F62 %30.49 in6.0 miNorth (350°)23.0 mph32.2 mphHaze
11:51 AM-2.2 °F-9.4 °F71 %30.44 in1.8 miNNW (340°)24.2 mph0.00 inSnowLight Snow
11:53 AM-2.0 °F-9.9 °F69 %30.52 in1.5 miNNW (340°)26.5 mph0.00 inSnowLight Snow
12:00 PM-2.2 °F-11.2 °F66 %30.44 in1.8 miNNW (340°)21.9 mph0.00 inSnowLight Snow
12:25 PM-0.4 °F-11.2 °F60 %30.44 in2.5 miNNW (340°)24.2 mph32.2 mph0.00 inHaze
12:37 PM-2.2 °F-11.2 °F66 %30.45 in4.0 miNorth (350°)24.2 mph31.1 mph0.00 inHaze
12:53 PM-2.0 °F-11.9 °F63 %30.54 in7.0 miNorth (350°)25.3 mph0.00 inOvercast
1:53 PM-2.9 °F-15.0 °F56 %30.56 in10.0 miNorth (350°)21.9 mphMostly Cloudy
2:53 PM-4.0 °F-14.1 °F62 %30.59 in10.0 miNorth (350°)20.7 mph28.8 mphOvercast
3:30 PM-5.8 °F-16.6 °F60 %30.53 in10.0 miNNW (340°)25.3 mph29.9 mphMostly Cloudy
3:39 PM-5.8 °F-16.6 °F60 %30.53 in10.0 miNNW (340°)24.2 mphMostly Cloudy
3:53 PM-5.8 °F-16.6 °F60 %30.53 in10.0 miNorth (350°)23.0 mphMostly Cloudy
4:05 PM-5.8 °F-16.6 °F60 %30.54 in10.0 miNorth (350°)19.6 mph27.6 mphScattered Clouds
4:53 PM-8.0 °F-18.9 °F59 %30.67 in10.0 miNNW (340°)19.6 mphClear
5:53 PM-9.0 °F-20.9 °F56 %30.69 in10.0 miNorth (350°)16.1 mphPartly Cloudy
6:53 PM-11.0 °F-20.0 °F64 %30.70 in10.0 miNorth (350°)13.8 mphClear
7:50 PM-11.2 °F-20.2 °F64 %30.63 in10.0 miNorth (350°)11.5 mphScattered Clouds
7:53 PM-11.9 °F-20.0 °F67 %30.73 in10.0 miNorth (360°)11.5 mphScattered Clouds
8:53 PM-13.0 °F-22.0 °F64 %30.73 in10.0 miNorth (10°)11.5 mphClear
9:53 PM-13.0 °F-23.1 °F61 %30.76 in10.0 miNorth (10°)10.4 mphClear
10:53 PM-13.0 °F-23.1 °F61 %30.77 in10.0 miNorth (10°)6.9 mphClear
11:53 PM-13.0 °F-22.0 °F64 %30.77 in10.0 miNE (40°)4.6 mphClear
Hourly data recorded from KFAR, located miles away from Fargo, North Dakota







STORIES FROM OUR PARTNERS